sat.trackr.live / text

‹ back to catalog

YAOGAN-35 03C

NORAD 53320 · 2022-088E

PAYLOAD ACTIVE UNKNOWN

§ Identity

Operator
Country
PRC
Launch date
2022-07-29
Launch site
XICLF
Launch vehicle
Mass (kg)
RCS (m²)

External: N2YO · Heavens-Above · Gunter

§ Orbital elements

Epoch: 2026-09-20T23:17:51.808128Z

Period
92.78 min
Inclination
34.9933°
Eccentricity
0.0003876
Mean motion
15.52118098 rev/d
Perigee alt
407.9 km
Apogee alt
413.2 km
Semi-major
6,788.7 km
B*
6.2603e-4
RAAN
245.6727°
Arg perigee
230.9257°
Mean anomaly
129.1122°
Rev number
23,179

§ Raw data

YAOGAN-35 03C1 53320U 22088E   26263.97073852  .00039192  00000+0  62603-3 0  99962 53320  34.9933 245.6727 0003876 230.9257 129.1122 15.52118098231791

JSON: /api/v1/satellites/53320 · /tle

For live sub-satellite position, see the globe view (requires WebGL).

§ Visibility from observer

Set your observer location to see the next 7 days of passes ≥ 10°. The values pass through the URL so the page stays shareable.

No JS? Fill the form by hand. The geolocation button needs JavaScript.